Regional Weather Roundup
Issued by NWS

Home | Current Version | Previous Version | Graphics & Text | Print | Product List | Glossary On
Versions: 1 2 3 4 5 6 7 8 9 10 11 12 13 14 15 16 17 18 19 20 21 22 23 24 25 26 27 28 29 30 31 32 33 34 35 36 37 38 39 40 41 42 43 44 45 46 47 48 49 50
000
ASUS43 KDTX 300210
RWRMI
MICHIGAN HOURLY REGIONAL WEATHER ROUNDUP
NATIONAL WEATHER SERVICE DETROIT/PONTIAC MI
1000 PM EDT WED MAR 29 2017

NOTE: "FAIR" INDICATES FEW OR NO CLOUDS BELOW 12,000 FEET WITH NO
SIGNIFICANT WEATHER AND/OR OBSTRUCTION TO VISIBILITY.

MIZ047>049-052>055-059>063-066>070-074>076-081>083-300300-
SOUTHEAST LOWER MICHIGAN

CITY           SKY/WX    TMP DP  RH WIND       PRES   REMARKS
ADRIAN         CLOUDY    45  31  58 E10       30.17R
ALMA           CLOUDY    37  30  77 NE12G20   30.23R WCI  29
ANN ARBOR      MOCLDY    45  31  58 E13       30.16S
BAD AXE        CLOUDY    35  27  73 NE6       30.27R WCI  30
CARO           PTCLDY    36  28  71 E6        30.22S WCI  31
DETROIT CITY   CLOUDY    40  31  70 E14       30.18F WCI  32
DETROIT        CLOUDY    43  32  65 E12       30.19R
FLINT          CLOUDY    40  31  70 E15       30.20S WCI  32
GROSSE ILE     PTCLDY    42  35  76 NE12      30.17F
HILLSDALE      LGT RAIN  45  32  61 E10       30.11F
HOWELL         CLOUDY    44  31  62 E9        30.16R

CITY           SKY/WX    TMP DP  RH WIND       PRES   REMARKS
JACKSON        CLOUDY    47  30  51 E9        30.15R
LAMBERTVILLE   CLOUDY    46  33  59 E7        30.16R
LANSING        CLOUDY    42  34  73 NE10      30.19R
LAPEER         FAIR      37  29  73 E3        30.21R
MASON          CLOUDY    45  37  73 NE7       30.17R
MONROE         CLOUDY    45  32  61 NE9       30.15F
MT. CLEMENS    CLOUDY    40  31  69 NE8       30.18F WCI  34
PONTIAC        CLOUDY    41  31  67 NE13      30.16S
PORT HOPE        N/A     36  30  79 NE17      30.23F WCI  26
PORT HURON     CLOUDY    36  28  75 NE8       30.20F WCI  29
TRI CITIES     PTCLDY    36  31  82 NE16      30.25R WCI  26
MIDLAND        FAIR      36  27  69 E7        30.25R WCI  30
TROY           PTCLDY    42  27  55 NE13      30.19F
SAGINAW HB     CLOUDY    36  30  80 NE10      30.23S WCI  28
$$
MIZ043>046-050>051-056>058-064>065-071>073-077>080-300300-
SOUTHWEST LOWER MICHIGAN

CITY           SKY/WX    TMP DP  RH WIND       PRES   REMARKS
BATTLE CREEK   CLOUDY    47  36  65 NE8       30.18R
BENTON HARBOR  RAIN      49  35  58 E18G29    30.13R
BIG RAPIDS     CLOUDY    39  27  62 E13       30.24R WCI  31
COLDWATER      CLOUDY    47  34  61 E5        30.16R
FREMONT        CLOUDY    42  27  55 E9        30.23R
HOLLAND        CLOUDY    47  32  56 E13       30.19R
GRAND RAPIDS   CLOUDY    42  34  73 NE8       30.22R
IONIA          CLOUDY    40  32  73 NE8       30.21R WCI  35
KALAMAZOO      CLOUDY    50  34  54 E6        30.18R
LUDINGTON      CLOUDY    45  34  66 SE8       30.22R
MARSHALL       CLOUDY    47  37  67 NE3       30.16R
MOUNT PLEASANT CLOUDY    37  26  65 NE12      30.23S WCI  29
MUSKEGON       CLOUDY    46  32  58 NE12      30.20R
SOUTH HAVEN    LGT RAIN  48  36  63 E6        30.15S
$$
MIZ016>042-300300-
NORTHERN LOWER MICHIGAN

CITY           SKY/WX    TMP DP  RH WIND       PRES   REMARKS
ALPENA         CLOUDY    33  26  75 NE3       30.31F
BEAVER ISLAND  MOCLDY    36  25  64 E9G17     30.27S WCI  29
BELLAIRE       CLOUDY    40  26  57 NE9       30.26R WCI  34
CADILLAC       CLOUDY    38  29  70 SE10      30.21R WCI  31
CHARLEVOIX     CLOUDY    38  28  66 E9        30.29R WCI  32
FRANKFORT      CLOUDY    42  30  63 SE3       30.22R
GAYLORD        CLOUDY    37  16  42 VRB6      30.25S WCI  32
GRAYLING       CLOUDY    36  19  51 E9        30.26S WCI  29
HARBOR SPRINGS CLOUDY    36  26  67 E10       30.27S WCI  28
HOUGHTON LAKE  CLOUDY    37  23  56 E14       30.25R WCI  28
MANISTEE       MOCLDY    42  32  67 E6        30.22R
OSCODA         CLOUDY    37  25  62 NE16      30.27F WCI  27
PELLSTON       CLOUDY    37  22  54 SE6       30.28F WCI  32
ROGERS CITY    CLOUDY    36  26  67 SE3       30.31F
TRAVERSE CITY  CLOUDY    42  31  64 E8        30.23R
$$
MIZ007>008-015-300300-
EASTERN UPPER MICHIGAN

CITY           SKY/WX    TMP DP  RH WIND       PRES   REMARKS
KINROSS        CLOUDY    33  23  66 E5        30.31F WCI  29
MACKINAC ISLAN CLOUDY    33  28  83 E6        30.29F WCI  27
NEWBERRY       PTCLDY    33  23  68 E7        30.28F WCI  27
S. S. MARIE    CLOUDY    35  24  64 CALM      30.31F
MUNISING         N/A     32  29  88 CALM      30.27F
$$
MIZ004>006-011>014-085-300300-
CENTRAL UPPER MICHIGAN

CITY           SKY/WX    TMP DP  RH WIND       PRES   REMARKS
MANISTIQUE     CLOUDY    35  21  57 E6        30.27S WCI  30
ESCANABA       CLOUDY    37  21  52 NE8       30.26F WCI  31
MENOMINEE      CLOUDY    36  27  69 NE7       30.27R WCI  30
SAWYER-GWINN   CLEAR     30  27  86 NE5       30.25F WCI  25
$$
MIZ001>003-009>011-084-300300-
WESTERN UPPER MICHIGAN

CITY           SKY/WX    TMP DP  RH WIND       PRES   REMARKS
IRON MOUNTAIN  MOCLDY    38  25  59 SE3       30.23S
HOUGHTON       CLOUDY    31  27  85 E10       30.24F WCI  22
COPPER HARBOR    N/A     33  28  81 CALM      30.28S
IRONWOOD       CLOUDY    42  29  59 E6        30.20R
$$

ABBREVIATIONS USED IN REMARKS
   TC - TEMPERATURE IN CELSIUS
  WCI - WIND CHILL INDEX
   HX - HEAT INDEX
  VSB - VISIBILITY




USA.gov is the U.S. government's official web portal to all federal, state and local government web resources and services.